Regional Weather Roundup
Issued by NWS Sterling, VA

Home | Current Version | Previous Version | Text Only | Print | Product List | Glossary Off
Versions: 1 2 3 4 5 6 7 8 9 10 11 12 13 14 15 16 17 18 19 20 21 22 23 24 25 26 27 28 29 30 31 32 33 34 35 36 37 38 39 40 41 42 43 44 45 46 47 48 49 50

000
ASUS41 KLWX 271810
RWRLWX

REGIONAL WEATHER ROUNDUP
NATIONAL WEATHER SERVICE BALTIMORE MD/WASHINGTON DC
200 PM EDT SUN JUL 27 2014

Note: "FAIR" indicates few or no clouds below 12,000 feet
with no significant weather and/or obstructions to visibility.
 TC=TEMPERATURE CELSIUS

 * =Non NWS site. Station does not report precipitation (e.g. rain,
    snow, etc.), thunder, or fog.

DCZ001-MDZ009-015-VAZ040>042-051-053>054-271900-
WASHINGTON METRO
  /KDAA//-FT BELVOIR

CITY           SKY/WX    TMP DP  RH WIND       PRES   REMARKS
WASHINGTON NAT PTSUNNY   85  68  56 SW14      29.80F
DULLES         PTSUNNY   83  69  62 S12       29.80F
ANDREWS AFB    PTSUNNY   82  71  68 SW12      29.80F
QUANTICO       CLOUDY    79  69  71 W13G18    29.82F
COLLEGE PARK*  PTSUNNY   86  70  58 W5        29.78F HX  90
LEESBURG*      PTSUNNY   86  73  66 W5        29.80F HX  93
MANASSAS*      SUNNY     81  72  74 SW8       29.81F
GAITHERSBURG*  PTSUNNY   84  72  65 W13G18    29.83F

$$

MDZ006>007-011-014-271900-
BALTIMORE METRO

CITY           SKY/WX    TMP DP  RH WIND       PRES   REMARKS
BWI AIRPORT    PTSUNNY   86  70  58 SW8       29.76F HX  90
MD SCIENCE CTR   N/A     90  69  50 MISG      29.76S HX  94
MARTIN STATE   MOSUNNY   88  73  62 S8        29.77F HX  96
ANNAPOLIS      PTSUNNY   83  69  62 SW10G17   29.77F
FORT MEADE*    MOSUNNY   82  70  65 S8        29.80F

$$

MDZ012-015-019>023-271900-
MARYLAND EASTERN SHORE

CITY           SKY/WX    TMP DP  RH WIND       PRES   REMARKS
OCEAN CITY     CLOUDY    78  70  76 SW14G20   29.84R
SALISBURY      NOT AVBL
BAY BRIDGE AP*   N/A     81  70  69 SW10G16   29.79F
CAMBRIDGE*     PTSUNNY   79  70  73 SW6       29.82S
EASTON*        PTSUNNY   81  72  74 SW12G21   29.84F

$$

MDZ017>025-271900-
SOUTHERN MARYLAND

CITY           SKY/WX    TMP DP  RH WIND       PRES   REMARKS
PATUXENT RIVER CLOUDY    77  70  79 SW10      29.82F
ST INIGOES     CLOUDY    78  69  73 SW9       29.83S
LEONARDTOWN*   CLOUDY    77  68  73 SW8       29.84S

$$

MDZ003>005-271900-
NORTH CENTRAL MARYLAND

CITY           SKY/WX    TMP DP  RH WIND       PRES   REMARKS
FREDERICK*     PTSUNNY   86  73  66 W9        29.80F HX  93
HAGERSTOWN APT MOSUNNY   87  68  52 SW9       29.77F HX  90
WESTMINSTER*   MOSUNNY   84  72  65 W10G17    29.80S

$$

MDZ501>502-271900-
WESTERN MARYLAND

CITY           SKY/WX    TMP DP  RH WIND       PRES   REMARKS
OAKLAND*       PTSUNNY   73  66  78 SW6       29.90F
CUMBERLAND*    MOSUNNY   88  66  48 S9        29.82F HX  90

$$

VAZ025>031-271900-
SHENANDOAH VALLEY

CITY           SKY/WX    TMP DP  RH WIND       PRES   REMARKS
WINCHESTER*    PTSUNNY   81  68  65 SW12G21   29.81F
STAUNTON*      CLOUDY    77  67  72 SW10      29.88F

$$

WVZ021-048>050-054>055-271900-
EASTERN WEST VIRGINIA PANHANDLE

CITY           SKY/WX    TMP DP  RH WIND       PRES   REMARKS
MARTINSBURG    MOSUNNY   84  68  58 SW9       29.79F
PETERSBURG*    CLOUDY    80  60  50 S6        29.82F

$$

VAZ036>039-050-271900-
CENTRAL FOOTHILLS

CITY           SKY/WX    TMP DP  RH WIND       PRES   REMARKS
CHARLOTTESVILL CLOUDY    81  70  69 S10       29.85F
ORANGE*        CLOUDY    79  70  73 S9        29.85F

$$

VAZ055>057-271900-
NORTH AND CENTRAL PIEDMONT

CITY           SKY/WX    TMP DP  RH WIND       PRES   REMARKS
FREDERICKSBRG* CLOUDY    82  71  68 SW9G24    29.82S
STAFFORD*      CLOUDY    80  70  71 SW7G20    29.86F

$$

NCZ024-NYZ072-PAZ021-071-VAZ022-071-271900-
OTHER REGIONAL OBSERVATIONS

CITY           SKY/WX    TMP DP  RH WIND       PRES   REMARKS
NEW YORK CITY  PTSUNNY   81  70  69 CALM      29.75F
PHILADELPHIA   PTSUNNY   88  68  51 SW12      29.74F HX  91
PITTSBURGH     PTSUNNY   82  68  62 SW14G20   29.78F
ROANOKE        CLOUDY    78  68  71 SW5       29.93F
RICHMOND       CLOUDY    82  71  69 SW13      29.86F
RALEIGH        PTSUNNY   80  73  79 SW5       29.93F

$$

ANZ530>537-271900-
MARINE OBSERVATIONS

STATION/POSITION TIME  TEMP    WIND        PRES
                       AIR SEA DIR/SP/G
                 (UTC) (F)     (DEG/KT/KT) (MB)
THOMAS PT LIGHT  1800   78 79  220/ 13/ 14 1009.2F
BALT KEY BRIDGE  1800   84     210/  7/  9 1007.7F
COVE POINT       1800   77     260/ 13/ 18 1009.4F
LEWISETTA        1800   77 80  250/ 11/ 14 1010.1R
SOLOMONS ISLAND  1800      80                N/A
PINEY POINT      1800          250/  5/  8   N/A

$$




USA.gov is the U.S. government's official web portal to all federal, state and local government web resources and services.